GW5962 Weather Reports


time (UTC)temp
F
wind
direction
speed
knots
gust
knots
rain 1hr
in
rain 24hr
in
rain mn
in
humidity
%
barometer
mb
20260507201102 86 0.0 0.0 0.00 0.00 0.00 44 1010.7
20260507200039 87 0.0 0.0 0.00 0.00 0.00 44 1010.8
20260507195036 87 0.0 0.0 0.00 0.00 0.00 43 1010.8
20260507194033 87 0.0 0.0 0.00 0.00 0.00 43 1010.9
20260507193051 87 0.0 0.9 0.00 0.00 0.00 43 1011.2
20260507192028 87 0.0 0.0 0.00 0.00 0.00 43 1011.1
20260507191025 88 0.0 0.0 0.00 0.00 0.00 43 1011.1
20260507190022 88 0.0 0.0 0.00 0.00 0.00 42 1010.9
20260507185020 88 0.0 0.0 0.00 0.00 0.00 42 1010.9
20260507184017 88 0.0 0.0 0.00 0.00 0.00 42 1011.1
20260507183134 88 0.0 0.9 0.00 0.00 0.00 42 1011.0
20260507182111 88 0.0 0.0 0.00 0.00 0.00 42 1011.0
20260507181109 89 0.0 0.0 0.00 0.00 0.00 42 1010.7
20260507180126 89 135 0.0 3.5 0.00 0.00 0.00 42 1010.7
20260507175103 89 0.0 0.0 0.00 0.00 0.00 42 1010.9
20260507174100 91 0.0 0.9 0.00 0.00 0.00 39 1010.7
20260507173058 91 0.0 0.9 0.00 0.00 0.00 40 1010.7
20260507172055 90 0.0 0.9 0.00 0.00 0.00 41 1010.9
20260507171052 90 0.0 0.0 0.00 0.00 0.00 42 1010.8
20260507170049 91 0.0 0.9 0.00 0.00 0.00 39 1010.8
20260507165046 91 135 0.0 4.3 0.00 0.00 0.00 39 1010.8
20260507164103 92 0.0 1.7 0.00 0.00 0.00 38 1011.1
20260507163041 92 0.0 3.5 0.00 0.00 0.00 39 1011.3
20260507162038 91 0.0 1.7 0.00 0.00 0.00 40 1011.6
20260507161035 91 135 0.0 3.5 0.00 0.00 0.00 40 1012.0
20260507160032 91 0.0 0.0 0.00 0.00 0.00 40 1012.2
20260507155049 91 0.0 0.0 0.00 0.00 0.00 41 1012.4
20260507154027 91 0.0 1.7 0.00 0.00 0.00 41 1012.8
20260507153024 90 0.0 0.0 0.00 0.00 0.00 43 1012.9
20260507152041 90 0.0 1.7 0.00 0.00 0.00 45 1013.1
20260507151018 89 0.0 2.6 0.00 0.00 0.00 44 1013.4
20260507150015 89 0.0 1.7 0.00 0.00 0.00 45 1013.9
20260507145113 89 0.0 0.9 0.00 0.00 0.00 45 1014.2
20260507144130 89 0.0 0.9 0.00 0.00 0.00 48 1014.3
20260507143108 88 0.0 2.6 0.00 0.00 0.00 49 1014.6
20260507142125 88 0.0 0.9 0.00 0.00 0.00 49 1015.1
20260507141102 87 0.0 0.9 0.00 0.00 0.00 50 1015.3
20260507140119 86 0.0 0.9 0.00 0.00 0.00 51 1015.6
20260507135056 87 0.0 0.9 0.00 0.00 0.00 52 1016.0
20260507134053 87 0.0 0.9 0.00 0.00 0.00 53 1016.4
20260507133051 86 0.0 0.0 0.00 0.00 0.00 54 1016.7
20260507132048 86 0.0 0.9 0.00 0.00 0.00 55 1017.0
20260507131045 85 0.0 0.0 0.00 0.00 0.00 57 1017.1
20260507130042 84 0.0 0.0 0.00 0.00 0.00 59 1017.2
20260507125039 85 0.0 0.0 0.00 0.00 0.00 58 1017.5
20260507124036 83 0.0 0.0 0.00 0.00 0.00 63 1017.6
20260507123034 80 0.0 0.0 0.00 0.00 0.00 69 1017.6
20260507122031 81 0.0 0.0 0.00 0.00 0.00 67 1017.4
20260507121028 80 0.0 0.0 0.00 0.00 0.00 67 1017.3
20260507120025 80 0.0 0.0 0.00 0.00 0.00 67 1017.4
20260507115043 80 0.0 0.0 0.00 0.00 0.00 67 1017.5
20260507114020 79 0.0 0.0 0.00 0.00 0.00 69 1017.8
20260507113037 80 0.0 0.0 0.00 0.00 0.00 66 1017.9
20260507112114 80 0.0 0.0 0.00 0.00 0.00 66 1017.8
20260507111131 80 0.0 0.0 0.00 0.00 0.00 67 1017.7
20260507110109 79 0.0 0.0 0.00 0.00 0.00 68 1017.6
20260507105106 78 0.0 0.0 0.00 0.00 0.00 70 1017.5
20260507104103 77 0.0 0.0 0.00 0.00 0.00 71 1017.5
20260507103101 76 0.0 0.0 0.00 0.00 0.00 72 1017.5
20260507102058 75 0.0 0.0 0.00 0.00 0.00 73 1017.5
20260507101055 75 0.0 0.0 0.00 0.00 0.00 73 1017.7
20260507100052 74 0.0 0.0 0.00 0.00 0.00 74 1017.8
20260507095049 74 0.0 0.0 0.00 0.00 0.00 75 1017.8
20260507094047 74 0.0 0.0 0.00 0.00 0.00 75 1017.9
20260507093043 74 0.0 0.0 0.00 0.00 0.00 75 1017.9
20260507092041 74 0.0 0.0 0.00 0.00 0.00 75 1017.7
20260507091038 74 0.0 0.0 0.00 0.00 0.00 76 1017.7
20260507090035 73 0.0 0.0 0.00 0.00 0.00 77 1017.6
20260507085033 73 0.0 0.0 0.00 0.00 0.00 77 1017.6
20260507084030 73 0.0 0.0 0.00 0.00 0.00 77 1017.8
20260507083027 74 0.0 0.0 0.00 0.00 0.00 75 1017.7
20260507082024 74 0.0 0.0 0.00 0.00 0.00 75 1017.9
20260507081021 75 0.0 0.9 0.00 0.00 0.00 74 1017.7
20260507080019 75 0.0 0.0 0.00 0.00 0.00 74 1017.8
20260507075016 75 0.0 0.0 0.00 0.00 0.00 73 1017.8
20260507074113 75 0.0 0.0 0.00 0.00 0.00 74 1017.9
20260507073130 75 0.0 0.0 0.00 0.00 0.00 75 1017.9
20260507072108 75 0.0 0.0 0.00 0.00 0.00 75 1018.1
20260507071105 75 0.0 0.0 0.00 0.00 0.00 75 1018.2
20260507065059 76 0.0 0.0 0.00 0.00 0.00 73 1018.3
20260507064056 76 0.0 0.0 0.00 0.00 0.00 73 1018.5
20260507063054 76 0.0 0.0 0.00 0.00 0.00 73 1018.8
20260507062051 76 0.0 0.0 0.00 0.00 0.00 72 1019.0
20260507061048 76 0.0 0.0 0.00 0.00 0.00 72 1019.1
20260507060106 76 0.0 0.0 0.00 0.00 0.00 72 1019.3
20260507055102 76 0.0 0.0 0.00 0.00 0.00 73 1019.2
20260507054040 76 0.0 0.0 0.00 0.00 0.00 73 1019.5
20260507053037 76 0.0 0.0 0.00 0.00 0.00 75 1019.6
20260507052054 76 0.0 0.0 0.00 0.00 0.00 75 1019.8
20260507051051 76 0.0 0.0 0.00 0.00 0.00 76 1020.0
20260507050028 76 0.0 0.0 0.00 0.00 0.00 77 1020.0
20260507045025 76 0.0 0.0 0.00 0.00 0.00 77 1020.1
20260507044023 76 0.0 0.0 0.00 0.00 0.00 77 1020.3
20260507043020 76 0.0 0.0 0.00 0.00 0.00 76 1020.4
20260507042018 75 0.0 0.0 0.00 0.00 0.00 80 1020.6
20260507041135 75 0.0 0.0 0.00 0.00 0.00 81 1020.8
20260507040112 75 0.0 0.0 0.00 0.00 0.00 81 1021.0
20260507035109 75 0.0 0.0 0.00 0.00 0.00 81 1021.0
20260507034106 76 0.0 0.0 0.00 0.00 0.00 80 1021.2
20260507033123 76 0.0 0.0 0.00 0.00 0.00 78 1021.3
20260507032120 76 0.0 0.0 0.00 0.00 0.00 78 1021.4
20260507031058 76 0.0 0.0 0.00 0.00 0.00 78 1021.4
20260507030115 77 0.0 0.0 0.00 0.00 0.00 78 1021.6
20260507025052 77 0.0 0.0 0.00 0.00 0.00 77 1021.7
20260507024050 77 0.0 0.0 0.00 0.00 0.00 78 1021.9
20260507023047 77 0.0 0.0 0.00 0.00 0.00 77 1022.0
20260507022104 77 0.0 0.0 0.00 0.00 0.00 78 1022.0
20260507021041 77 0.0 0.0 0.00 0.00 0.00 79 1022.0
20260507020038 77 0.0 0.0 0.00 0.00 0.00 81 1022.0
20260507015035 77 0.0 0.0 0.00 0.00 0.00 83 1022.2
20260507014033 76 0.0 0.0 0.00 0.00 0.00 85 1022.4
20260507013030 76 0.0 0.0 0.00 0.00 0.00 85 1022.4
20260507012027 77 0.0 0.0 0.00 0.00 0.00 84 1022.5
20260507011025 77 0.0 0.0 0.00 0.00 0.00 84 1022.7
20260507010022 77 0.0 0.0 0.00 0.00 0.00 83 1022.7
20260507005019 77 0.0 0.0 0.00 0.00 0.00 83 1022.7
20260507004016 77 0.0 0.0 0.00 0.00 0.00 83 1022.8
20260507003113 78 0.0 0.9 0.00 0.00 0.00 82 1022.8
20260507002111 78 0.0 0.0 0.00 0.00 0.00 82 1023.0
20260507001108 78 0.0 0.0 0.00 0.00 0.00 83 1023.1
20260507000105 78 0.0 0.0 0.00 0.00 0.00 83 1023.1
20260506235122 78 0.0 0.0 0.00 0.00 0.00 83 1023.1
20260506234059 78 0.0 0.0 0.00 0.00 0.00 81 1023.0
20260506233057 78 0.0 0.0 0.00 0.00 0.00 81 1023.1
20260506232114 78 0.0 0.0 0.00 0.00 0.00 81 1023.1
20260506231051 79 0.0 0.0 0.00 0.00 0.00 81 1023.0
20260506230048 78 0.0 0.0 0.00 0.00 0.00 81 1023.0
20260506225105 78 0.0 0.0 0.00 0.00 0.00 81 1023.0
20260506224043 78 0.0 0.0 0.00 0.00 0.00 80 1022.9
20260506223040 78 0.0 0.0 0.00 0.00 0.00 80 1022.9
20260506222037 79 0.0 0.0 0.00 0.00 0.00 80 1022.9
20260506221034 79 0.0 0.0 0.00 0.00 0.00 80 1022.9
20260506220031 79 0.0 0.0 0.00 0.00 0.00 80 1023.0
20260506215029 79 0.0 0.0 0.00 0.00 0.00 79 1023.0
20260506214026 80 0.0 0.0 0.00 0.00 0.00 77 1022.9
20260506213023 80 0.0 0.0 0.00 0.00 0.00 76 1022.9
20260506212021 81 0.0 0.0 0.00 0.00 0.00 75 1022.9
20260506211017 81 0.0 1.7 0.00 0.00 0.00 75 1022.8
20260506210115 82 0.0 0.0 0.00 0.00 0.00 69 1022.7
20260506205112 83 0.0 0.0 0.00 0.00 0.00 67 1022.8
20260506204109 84 0.0 0.0 0.00 0.00 0.00 64 1022.6
20260506203107 86 0.0 0.0 0.00 0.00 0.00 63 1022.8
20260506202104 88 0.0 0.0 0.00 0.00 0.00 60 1022.8